Total_Precipitation_Accumulation
0.39 0.36 0.35 0.33 0.31 0.30 0.28 0.27 0.25 0.22 0.21 0.19 0.18 0.18 0.21 0.23 0.21 0.17 0.15 0.13 0.10 0.11 0.18 0.33 0.58 0.84 1.04 1.15 1.15 1.01 0.93 0.81 0.64 0.55 0.53 0.60 0.63 0.63 0.66 0.77 0.74 0.63 0.60
0.31 0.26 0.25 0.23 0.20 0.19 0.17 0.15 0.13 0.13 0.12 0.12 0.11 0.12 0.14 0.17 0.19 0.19 0.20 0.22 0.17 0.14 0.16 0.23 0.36 0.60 0.91 1.12 1.23 1.20 1.07 0.99 0.82 0.65 0.57 0.57 0.62 0.63 0.63 0.70 0.78 0.75 0.65
0.32 0.27 0.25 0.22 0.19 0.18 0.17 0.15 0.13 0.10 0.09 0.07 0.06 0.07 0.08 0.09 0.12 0.15 0.18 0.22 0.23 0.20 0.18 0.22 0.29 0.44 0.74 1.04 1.22 1.35 1.26 1.13 1.02 0.88 0.69 0.58 0.60 0.65 0.64 0.67 0.75 0.83 0.80
0.37 0.31 0.27 0.25 0.22 0.22 0.20 0.19 0.16 0.13 0.10 0.08 0.07 0.06 0.08 0.08 0.07 0.09 0.14 0.16 0.19 0.21 0.20 0.21 0.29 0.43 0.61 0.88 1.14 1.40 1.51 1.35 1.26 1.20 1.01 0.78 0.63 0.65 0.68 0.68 0.74 0.83 0.92
0.42 0.37 0.31 0.28 0.27 0.29 0.27 0.23 0.21 0.18 0.14 0.10 0.09 0.07 0.06 0.06 0.06 0.09 0.11 0.15 0.17 0.18 0.21 0.21 0.25 0.35 0.48 0.71 1.06 1.40 1.73 1.77 1.60 1.47 1.31 1.13 0.90 0.73 0.73 0.72 0.76 0.85 0.95
0.46 0.42 0.38 0.33 0.31 0.31 0.30 0.26 0.23 0.20 0.18 0.15 0.13 0.09 0.05 0.04 0.04 0.06 0.08 0.13 0.16 0.17 0.19 0.24 0.27 0.25 0.27 0.40 0.64 1.02 1.40 1.74 1.81 1.73 1.62 1.44 1.23 1.01 0.88 0.82 0.81 0.90 1.01
0.52 0.47 0.41 0.38 0.34 0.31 0.27 0.24 0.24 0.24 0.20 0.16 0.16 0.13 0.09 0.05 0.04 0.05 0.08 0.13 0.17 0.23 0.29 0.34 0.41 0.38 0.30 0.29 0.32 0.46 0.81 1.31 1.67 1.84 1.85 1.80 1.58 1.33 1.12 0.98 0.94 0.99 1.07
0.57 0.56 0.48 0.40 0.36 0.33 0.30 0.26 0.23 0.24 0.24 0.21 0.22 0.23 0.16 0.09 0.06 0.06 0.07 0.11 0.18 0.28 0.39 0.44 0.49 0.50 0.46 0.36 0.25 0.25 0.37 0.74 1.29 1.76 1.91 1.93 1.98 1.78 1.45 1.22 1.10 1.12 1.19
0.54 0.57 0.55 0.48 0.39 0.35 0.33 0.28 0.24 0.23 0.24 0.20 0.21 0.37 0.42 0.24 0.10 0.04 0.04 0.06 0.09 0.13 0.20 0.29 0.36 0.41 0.47 0.48 0.39 0.30 0.28 0.43 0.80 1.41 1.93 2.04 2.08 2.19 1.98 1.56 1.30 1.22 1.26
0.57 0.53 0.57 0.54 0.48 0.39 0.34 0.30 0.26 0.24 0.28 0.28 0.21 0.22 0.31 0.32 0.33 0.17 0.05 0.04 0.04 0.05 0.06 0.10 0.16 0.23 0.34 0.44 0.48 0.43 0.37 0.37 0.57 0.95 1.59 2.13 2.20 2.31 2.43 2.09 1.65 1.40 1.33
0.66 0.57 0.54 0.57 0.53 0.46 0.37 0.31 0.28 0.27 0.29 0.33 0.31 0.25 0.21 0.19 0.22 0.31 0.15 0.05 0.06 0.05 0.04 0.05 0.07 0.11 0.17 0.27 0.36 0.43 0.46 0.40 0.50 0.71 1.07 1.72 2.32 2.50 2.62 2.50 2.05 1.63 1.40
0.75 0.70 0.58 0.56 0.54 0.50 0.43 0.35 0.31 0.30 0.29 0.30 0.31 0.31 0.33 0.32 0.24 0.29 0.24 0.09 0.05 0.05 0.05 0.05 0.06 0.08 0.11 0.17 0.23 0.36 0.43 0.45 0.45 0.56 0.70 1.07 1.82 2.48 2.71 2.62 2.32 1.94 1.58
0.81 0.72 0.68 0.59 0.58 0.53 0.46 0.41 0.39 0.36 0.31 0.32 0.33 0.33 0.31 0.30 0.27 0.31 0.34 0.21 0.11 0.05 0.04 0.06 0.07 0.09 0.12 0.14 0.18 0.25 0.32 0.40 0.45 0.51 0.51 0.59 0.96 1.79 2.57 2.82 2.57 2.22 1.91
0.80 0.70 0.68 0.62 0.58 0.57 0.53 0.49 0.45 0.41 0.38 0.36 0.33 0.33 0.32 0.28 0.29 0.34 0.39 0.43 0.33 0.12 0.05 0.04 0.05 0.08 0.12 0.14 0.16 0.21 0.21 0.28 0.36 0.42 0.45 0.47 0.55 0.90 1.69 2.62 3.15 2.84 2.34
0.87 0.79 0.71 0.68 0.64 0.62 0.57 0.54 0.53 0.47 0.45 0.44 0.41 0.38 0.38 0.34 0.33 0.35 0.36 0.45 0.61 0.43 0.12 0.04 0.05 0.07 0.10 0.14 0.19 0.19 0.18 0.21 0.28 0.35 0.39 0.42 0.48 0.58 0.90 1.57 2.54 3.23 3.11
0.92 0.91 0.84 0.77 0.71 0.70 0.67 0.62 0.59 0.54 0.52 0.48 0.47 0.46 0.45 0.42 0.40 0.40 0.41 0.40 0.47 0.55 0.34 0.07 0.07 0.08 0.11 0.14 0.19 0.20 0.20 0.23 0.24 0.29 0.34 0.37 0.42 0.52 0.68 0.99 1.58 2.51 3.12
1.00 0.97 0.97 0.91 0.82 0.77 0.78 0.76 0.70 0.65 0.61 0.53 0.50 0.52 0.51 0.47 0.46 0.42 0.42 0.41 0.40 0.46 0.46 0.14 0.07 0.10 0.15 0.19 0.20 0.20 0.21 0.19 0.18 0.22 0.28 0.36 0.41 0.49 0.62 0.80 1.08 1.68 2.56
1.05 1.05 1.11 1.09 0.99 0.87 0.82 0.85 0.85 0.80 0.77 0.71 0.65 0.61 0.60 0.59 0.60 0.56 0.54 0.48 0.43 0.42 0.48 0.34 0.13 0.10 0.17 0.25 0.30 0.28 0.23 0.20 0.17 0.19 0.24 0.31 0.39 0.46 0.57 0.71 0.88 1.17 1.76
1.00 1.12 1.23 1.28 1.21 1.11 0.97 0.86 0.91 0.98 0.99 0.97 0.92 0.89 0.84 0.79 0.81 0.76 0.72 0.63 0.51 0.43 0.43 0.43 0.26 0.16 0.19 0.27 0.37 0.37 0.32 0.25 0.20 0.21 0.25 0.29 0.35 0.40 0.48 0.59 0.73 0.90 1.17
0.94 1.12 1.25 1.37 1.39 1.39 1.40 1.27 1.15 1.03 1.00 1.04 1.05 1.04 1.08 1.08 1.07 1.01 0.96 0.80 0.64 0.56 0.50 0.50 0.40 0.27 0.24 0.30 0.47 0.52 0.47 0.37 0.28 0.23 0.27 0.28 0.33 0.39 0.40 0.43 0.48 0.62 0.89
0.92 1.04 1.16 1.26 1.28 1.44 1.82 1.87 1.47 1.01 0.86 0.85 0.84 0.84 0.92 1.07 1.17 1.22 1.23 1.07 0.93 0.88 0.77 0.71 0.60 0.48 0.39 0.43 0.57 0.62 0.66 0.59 0.49 0.38 0.31 0.25 0.26 0.27 0.28 0.33 0.42 0.52 0.71
0.90 1.00 1.05 1.06 1.06 1.24 1.68 1.79 1.31 0.90 0.73 0.69 0.68 0.65 0.67 0.80 0.89 0.97 1.10 1.15 1.20 1.27 1.20 1.04 0.87 0.72 0.54 0.50 0.57 0.74 0.82 0.88 0.81 0.56 0.47 0.39 0.33 0.31 0.28 0.27 0.32 0.42 0.59
0.85 0.89 0.90 0.85 0.82 0.97 1.37 1.45 1.12 0.79 0.65 0.55 0.52 0.51 0.49 0.54 0.65 0.63 0.73 0.86 1.01 1.19 1.32 1.28 1.20 0.93 0.68 0.57 0.67 0.84 0.91 0.98 0.88 0.73 0.75 0.72 0.58 0.46 0.38 0.36 0.40 0.43 0.52
0.85 0.81 0.76 0.70 0.65 0.74 1.12 1.29 1.05 0.74 0.65 0.56 0.52 0.46 0.40 0.41 0.53 0.60 0.67 0.68 0.69 0.85 1.11 1.26 1.34 1.15 0.89 0.78 0.91 1.10 1.21 1.19 1.03 0.95 0.99 1.02 0.78 0.63 0.56 0.52 0.49 0.45 0.46
0.75 0.75 0.69 0.65 0.56 0.57 0.93 1.28 1.13 0.79 0.69 0.62 0.56 0.51 0.44 0.37 0.55 0.66 0.60 0.54 0.50 0.59 0.75 1.00 1.17 1.19 1.13 1.11 1.18 1.37 1.48 1.53 1.42 1.18 1.14 1.19 1.03 0.81 0.75 0.75 0.67 0.56 0.47
0.59 0.63 0.59 0.57 0.49 0.47 0.71 1.18 1.27 0.85 0.71 0.60 0.54 0.51 0.58 0.56 0.63 0.62 0.51 0.51 0.56 0.53 0.51 0.57 0.64 0.73 0.77 0.80 1.01 1.23 1.36 1.50 1.51 1.52 1.31 1.24 1.28 1.20 1.22 0.98 0.78 0.57 0.48